Weather History for KINK - February, 2013

Change the Weather History Date:

Saturday, February 23, 2013

  Actual Average Record
Temperature  
Mean Temperature 49 °F -  
Max Temperature 66 °F 67 °F 87 °F (2007)
Min Temperature 32 °F 32 °F 14 °F (1966)
Degree Days  
Heating Degree Days 16    
Moisture  
Dew Point 15 °F    
Average Humidity 30    
Maximum Humidity 59    
Minimum Humidity 10    
Precipitation  
Precipitation 0.00 in - - ()
Sea Level Pressure  
Sea Level Pressure 29.88 in    
Wind  
Wind Speed 8 mph (SW)    
Max Wind Speed 16 mph    
Max Gust Speed 25 mph    
Visibility 10 miles    
Events      
Averages and records for this station are not official NWS values.
T = Trace of Precipitation, MM = Missing Value Source: NWS Daily Summary

Daily Weather History Graph

Daily Weather History Graph

Search for Another Location

Airport or City:

Trip Planner

Search our weather history database for the weather conditions in past years. The results will help you decide how hot, cold, wet, or windy it might be!

Date:

Astronomy

Feb. 23, 2013 Rise Set
Actual Time 7:26 AM CST 6:46 PM CST
Civil Twilight 7:01 AM CST 7:10 PM CST
Nautical Twilight 6:33 AM CST 7:39 PM CST
Astronomical Twilight 6:05 AM CST 8:07 PM CST
Moon 5:02 PM CST (2/23) 5:45 AM CST (2/23)
Length of Visible Light 12h 09m
Length of Day
11h 20m
Waxing Gibbous, 95% of the Moon is Illuminated
Feb 23
Waxing Gibbous
Feb 25
Full
Mar 4
Last Quarter
Mar 11
New
Mar 19
First Quarter

Hourly Weather History & Observations

Time (CST) Temp. Windchill Dew Point Humidity Pressure Visibility Wind Dir Wind Speed Gust Speed Precip Events Conditions
12:53 AM 37.9 °F 32.7 °F 17.1 °F 43% 29.94 in 10.0 mi SE 6.9 mph - N/A   Clear
1:53 AM 36.0 °F 29.6 °F 17.1 °F 46% 29.94 in 10.0 mi SSW 8.1 mph - N/A   Clear
2:53 AM 37.9 °F 31.5 °F 18.0 °F 45% 29.92 in 10.0 mi South 9.2 mph - N/A   Clear
3:53 AM 37.0 °F 30.4 °F 18.0 °F 46% 29.96 in 10.0 mi NNW 9.2 mph - N/A   Clear
4:53 AM 35.1 °F 30.1 °F 19.0 °F 52% 29.96 in 10.0 mi NNW 5.8 mph - N/A   Clear
5:53 AM 37.0 °F - 19.9 °F 50% 29.98 in 10.0 mi Calm Calm - N/A   Clear
6:53 AM 34.0 °F 28.8 °F 19.0 °F 54% 29.99 in 10.0 mi NW 5.8 mph - N/A   Clear
7:53 AM 32.0 °F 25.6 °F 19.0 °F 59% 30.01 in 10.0 mi WSW 6.9 mph - N/A   Clear
8:53 AM 42.1 °F 38.4 °F 19.0 °F 40% 30.01 in 10.0 mi WSW 5.8 mph - N/A   Clear
9:53 AM 46.9 °F - 17.1 °F 30% 30.00 in 10.0 mi WSW 8.1 mph - N/A   Clear
10:53 AM 51.1 °F - 16.0 °F 25% 29.99 in 10.0 mi West 9.2 mph - N/A   Clear
11:53 AM 55.0 °F - 16.0 °F 22% 29.96 in 10.0 mi Variable 3.5 mph - N/A   Clear
12:53 PM 57.0 °F - 12.9 °F 18% 29.93 in 10.0 mi WSW 5.8 mph - N/A   Clear
1:53 PM 61.0 °F - 10.0 °F 13% 29.87 in 10.0 mi WSW 9.2 mph - N/A   Clear
2:53 PM 64.9 °F - 8.1 °F 11% 29.81 in 10.0 mi SW 16.1 mph 21.9 mph N/A   Clear
3:53 PM 66.0 °F - 10.0 °F 11% 29.78 in 10.0 mi WSW 9.2 mph - N/A   Clear
4:53 PM 66.9 °F - 9.0 °F 10% 29.75 in 10.0 mi WSW 16.1 mph - N/A   Clear
5:53 PM 66.9 °F - 12.0 °F 12% 29.73 in 10.0 mi SW 16.1 mph 25.3 mph N/A   Clear
6:53 PM 61.0 °F - 12.0 °F 15% 29.75 in 10.0 mi SW 10.4 mph - N/A   Clear
7:53 PM 54.0 °F - 14.0 °F 21% 29.77 in 10.0 mi SSW 9.2 mph - N/A   Clear
8:53 PM 53.1 °F - 15.1 °F 22% 29.74 in 10.0 mi SSW 9.2 mph - N/A   Clear
9:53 PM 51.1 °F - 15.1 °F 24% 29.73 in 10.0 mi South 10.4 mph - N/A   Clear
10:53 PM 46.0 °F 43.1 °F 15.1 °F 29% 29.75 in 10.0 mi SSE 5.8 mph - N/A   Clear
11:53 PM 43.0 °F 39.5 °F 15.1 °F 32% 29.73 in 10.0 mi SW 5.8 mph - N/A   Clear